Tracking 35237 objects as of 4-Sep-2026
HD Live streaming from Space Station
objects crossing your sky now

STARLINK-6077

Track STARLINK-6077 now!
10-day predictions
STARLINK-6077 is classified as:


NORAD ID: 56097
Int'l Code: 2023-046E
Launch date: March 29, 2023
Source: United States (US)
Launch site: AIR FORCE EASTERN TEST RANGE (AFETR)
Your satellite tracking list
Your tracking list is empty




NASA's NSSDC Master Catalog

Two Line Element Set (TLE):
1 56097U 23046E   26246.20157091  .00000039  00000-0  10933-4 0  9999
2 56097  43.0008 191.7878 0000927 238.8622 121.2139 15.27576580189726
Source of the keplerian elements: AFSPC